Overview Statistics Trail Chart Weather Telemetry Raw packets
 

This is the latest recevied weather packets stored in our database for station/object HS5BOG-13. If no packets are shown the sender has not sent any weather packets the latest 10 day(s).

<< 5 6 7 8 9 10 11 >>
Time Temp. Humidity Pressure Rain* Wind** Luminosity Snow
1788425213 30.56° C 91% 987 hPa - - - -
1788424607 30.56° C 92% 987.1 hPa - - - -
1788424001 30.56° C 92% 987.3 hPa - - - -
1788423396 30.56° C 91% 987.2 hPa - - - -
1788422790 30.56° C 91% 987.4 hPa - - - -
1788422185 30.56° C 90% 987.6 hPa - - - -
1788421579 30° C 82% 987.7 hPa - - - -
1788420974 30.56° C 79% 988 hPa - - - -
1788420368 30° C 85% 988.1 hPa - - - -
1788419763 30.56° C 81% 988.4 hPa - - - -
1788419158 30.56° C 90% 988.5 hPa - - - -
1788418552 30° C 92% 988.6 hPa - - - -
1788417947 30.56° C 84% 988.8 hPa - - - -
1788417341 30° C 91% 989 hPa - - - -
1788416736 30° C 90% 989.2 hPa - - - -
1788416130 30° C 88% 989.3 hPa - - - -
1788415525 30° C 88% 989.6 hPa - - - -
1788414919 29.44° C 93% 989.8 hPa - - - -
1788414314 30° C 91% 990 hPa - - - -
1788413708 30° C 92% 990.3 hPa - - - -
1788413103 30° C 91% 990.5 hPa - - - -
1788412497 30° C 93% 990.6 hPa - - - -
1788411894 30° C 93% 990.8 hPa - - - -
1788411286 29.44° C 95% 991.1 hPa - - - -
1788410681 29.44° C 97% 991.2 hPa - - - -

* Rain since midnight (hover to see other rain measurements)
** Current wind speed in m/s (hover to see current wind gust speed)